Dewpoint
15 15 15 15 13 13 13 14 15 14 14 14 14 14 14 14 14 14 14 13 10 9 10 10 10 12 12 13 14 14 14 14 14 13 13 13 13 13 13 14 15 14 14 14 14 14 14 13 13 13 13 12 12 12 12 12 12 12 14 14 14 14 14
15 15 15 15 14 14 14 14 15 15 15 14 14 14 14 14 14 14 14 14 11 9 9 10 10 10 11 12 13 14 13 13 14 13 13 13 13 13 13 14 15 14 14 14 14 14 15 14 13 12 13 13 13 13 13 13 13 13 14 14 14 13 14
15 15 15 15 15 14 14 14 14 15 15 15 15 14 14 14 14 14 14 14 13 11 11 11 10 9 10 11 12 13 14 14 14 14 13 13 13 13 13 14 14 15 14 14 14 14 14 14 14 13 13 14 15 15 15 15 14 13 14 13 13 12 12
14 15 15 15 16 15 15 15 14 14 14 15 15 15 15 14 14 14 14 14 14 13 13 12 11 9 9 10 11 12 14 14 14 14 13 13 13 13 13 14 14 15 14 14 14 13 14 14 13 13 13 14 15 16 16 16 15 15 15 14 12 11 11
14 14 15 15 16 16 16 15 15 14 14 14 15 15 15 15 15 14 14 14 14 14 13 12 11 10 8 9 10 10 12 13 13 13 13 13 12 13 14 14 14 14 13 13 13 13 13 13 13 13 14 14 15 15 15 16 16 16 16 15 13 12 11
14 14 14 15 15 16 16 15 15 15 14 14 14 14 15 15 15 15 14 14 14 14 14 14 13 12 9 7 9 9 10 12 13 13 13 12 12 13 13 13 14 13 13 13 12 12 12 13 13 14 15 15 15 15 15 15 15 15 15 15 14 13 12
14 14 14 15 15 15 16 16 16 16 15 14 14 14 14 14 15 15 15 14 14 14 14 14 14 13 10 7 7 8 9 10 11 12 13 12 12 13 13 13 13 13 13 13 12 10 11 13 14 15 16 15 15 15 15 15 15 15 15 15 14 14 13
15 15 15 15 16 16 16 17 16 15 15 14 13 13 14 14 14 15 16 15 14 14 14 14 14 14 12 9 7 8 8 9 9 11 12 12 12 12 12 12 13 13 13 12 11 10 11 14 15 15 16 16 15 16 15 15 15 15 16 16 15 14 13
14 15 16 16 16 16 16 17 16 15 15 14 13 13 14 15 14 15 16 15 14 14 14 14 14 14 13 10 8 7 8 9 9 10 10 11 11 11 11 11 12 12 12 11 11 12 12 14 15 15 16 16 15 16 15 15 16 15 16 16 16 15 14
14 15 16 16 16 16 16 16 17 16 15 14 14 14 14 14 13 14 15 15 15 14 14 14 14 14 13 11 8 7 8 9 9 10 10 10 10 11 11 11 11 11 11 11 11 12 13 14 14 15 15 15 15 16 16 15 15 16 16 16 16 16 15
15 15 16 16 16 16 16 16 16 16 15 15 14 14 14 14 13 13 15 16 16 15 14 14 14 14 14 12 9 7 7 8 9 10 10 10 10 10 10 11 11 11 11 11 11 13 14 14 15 15 15 15 15 15 15 15 15 15 16 16 16 16 16
15 15 16 16 16 16 16 16 16 16 16 15 15 14 14 14 14 14 14 15 16 16 15 14 14 14 14 14 12 9 7 7 8 9 9 10 10 10 10 10 10 10 10 10 12 15 16 16 16 16 16 16 15 15 14 15 15 15 16 16 16 16 16
14 15 15 15 15 15 16 16 16 16 16 16 15 15 14 14 15 15 14 14 15 16 16 15 14 14 14 14 14 12 9 7 7 8 8 9 10 9 9 9 8 8 9 10 12 14 16 16 16 16 16 15 15 15 14 15 16 16 16 16 16 16 16
14 14 14 15 15 15 16 16 16 16 16 16 16 15 15 14 15 15 15 15 14 15 16 15 14 15 15 15 14 14 12 9 7 7 8 8 8 9 10 10 10 10 9 10 12 14 15 16 16 16 16 16 16 15 15 15 16 16 16 16 16 16 16
14 14 14 14 15 15 16 16 16 16 16 16 16 15 15 14 14 14 14 14 14 14 15 15 15 15 15 15 14 14 13 12 10 8 8 8 9 9 11 13 14 13 12 12 13 14 15 16 15 16 15 15 15 15 15 15 16 16 16 16 16 16 16
13 13 14 14 14 15 15 15 16 16 16 16 16 16 16 15 14 14 14 14 14 15 15 16 15 15 15 15 15 15 14 14 14 12 9 9 9 11 13 15 16 16 15 14 14 15 16 15 15 15 15 15 15 15 15 15 15 16 15 16 16 15 16
13 13 14 14 14 15 15 15 15 16 16 16 16 16 17 16 15 14 13 13 14 15 15 16 15 15 15 15 15 15 15 15 15 14 12 11 10 12 14 16 16 16 16 16 15 15 16 15 15 15 14 14 14 15 15 15 15 15 15 15 16 16 15
14 14 14 14 14 15 15 15 15 15 16 16 16 16 16 16 16 15 14 13 13 14 15 15 15 14 15 16 16 16 16 16 16 15 14 14 13 13 15 16 16 16 16 16 16 16 16 16 15 15 15 15 14 15 15 15 15 15 15 15 15 15 15
14 14 14 14 14 15 15 15 14 14 15 16 16 15 15 15 16 16 16 15 15 15 15 15 16 16 16 16 15 15 16 16 16 15 15 16 15 15 15 16 16 16 16 16 16 16 15 15 15 15 15 15 15 15 15 14 14 15 15 15 15 15 15
14 14 14 14 14 14 14 14 14 14 15 15 16 15 15 15 15 15 16 16 16 16 16 16 16 16 16 16 15 14 14 15 16 16 16 16 16 16 15 16 16 16 16 16 16 16 16 16 16 16 16 16 16 15 15 15 15 14 14 14 14 14 14
14 14 14 14 14 14 13 14 15 15 15 15 15 16 16 16 16 16 16 16 16 16 16 16 16 16 16 15 15 15 15 15 16 16 16 16 16 15 15 16 16 16 16 16 16 16 16 17 17 16 16 16 16 16 16 15 15 15 15 14 15 14 13
13 13 14 14 13 13 13 14 14 15 15 15 15 16 16 16 16 16 16 16 16 16 16 16 16 16 16 16 15 15 15 15 15 16 16 16 15 15 15 15 16 15 15 16 16 16 16 17 17 16 16 16 16 16 16 16 15 16 15 15 15 14 13
13 13 13 13 13 13 13 14 14 15 15 15 15 16 16 16 16 16 16 16 16 16 16 16 16 16 16 16 16 16 15 15 16 16 16 16 16 16 16 16 17 16 16 16 17 17 16 17 17 16 16 16 16 15 16 16 16 16 15 15 15 14 14
13 13 12 12 13 13 14 14 14 14 15 15 15 15 15 15 16 16 16 16 16 16 16 16 16 17 16 16 16 16 15 16 17 17 17 17 17 17 17 17 17 17 17 17 17 17 17 17 17 17 16 16 16 16 16 16 16 15 15 15 15 15 15
12 12 12 12 13 13 13 14 14 14 15 15 15 15 15 14 15 16 16 15 15 16 16 15 16 16 16 17 17 17 16 17 17 17 17 17 17 17 17 17 17 17 17 17 17 17 16 17 17 17 16 17 17 16 16 16 16 15 15 15 15 15 16
12 11 11 11 12 12 13 14 14 14 14 14 14 15 14 14 15 16 16 16 15 15 15 15 15 16 16 16 16 16 16 16 16 16 16 16 16 17 17 16 17 17 16 16 17 16 16 17 17 17 17 17 17 17 16 16 16 16 16 15 15 16 16
9 8 7 9 11 12 12 13 14 14 14 14 14 14 14 14 14 15 15 15 15 15 14 15 15 15 16 16 16 16 16 16 16 16 16 16 16 16 16 16 16 16 16 16 16 16 16 16 16 16 16 16 16 16 16 16 16 16 16 16 16 16 16
7 6 5 6 8 11 12 12 13 13 13 14 14 14 14 14 14 14 15 15 15 14 14 15 15 15 16 16 16 16 16 16 16 16 16 16 16 15 15 15 15 15 15 15 15 15 15 15 15 15 15 16 16 16 16 16 16 16 16 16 16 16 16
9 8 6 5 6 9 11 11 12 12 13 14 14 14 14 14 14 14 14 14 14 14 14 14 14 15 15 15 15 15 16 15 15 15 15 15 14 14 14 14 14 14 14 14 14 15 15 15 15 15 15 15 15 15 15 15 15 15 16 16 16 16 16
10 9 7 6 7 8 8 8 9 10 12 13 13 14 14 14 14 13 13 13 13 13 14 14 14 14 14 14 14 14 14 14 14 14 14 14 14 14 13 13 13 14 14 14 14 14 14 14 14 14 14 14 14 14 15 15 15 15 15 15 16 15 16
10 10 10 9 10 10 9 8 7 7 8 9 11 11 11 11 11 11 11 12 12 12 13 13 13 13 13 13 13 13 13 13 13 13 13 13 13 13 13 13 13 13 13 14 14 14 14 13 13 13 14 14 14 14 14 14 14 14 14 14 15 15 15
10 11 11 11 11 11 11 10 9 8 6 6 6 6 5 4 3 3 4 6 7 8 9 9 10 11 10 10 10 10 9 9 9 8 8 8 8 10 11 12 13 13 13 13 12 11 11 11 12 12 12 13 13 13 13 13 13 13 13 13 14 14 14
10 11 11 11 11 11 11 10 10 10 9 8 7 7 5 2 -4 -7 -7 -4 -3 -3 -2 0 1 1 -0 -0 -1 -0 -1 -2 -3 -5 -6 -6 -4 -1 2 4 6 7 7 7 5 5 6 7 9 10 10 11 11 11 12 12 12 12 12 13 13 13 14
11 11 10 11 11 11 10 10 9 9 9 9 9 8 8 6 3 -4 -10 -11 -10 -11 -12 -12 -12 -13 -14 -15 -15 -15 -16 -17 -17 -17 -16 -18 -16 -15 -13 -10 -8 -6 -6 -7 -8 -7 -4 -0 2 3 4 4 4 6 7 8 9 10 10 11 12 12 13
11 11 11 11 11 11 10 10 9 8 8 9 9 8 8 9 7 3 -4 -10 -12 -14 -15 -15 -13 -13 -13 -13 -12 -11 -12 -15 -16 -17 -18 -17 -17 -17 -17 -18 -18 -18 -18 -20 -18 -18 -16 -12 -9 -7 -6 -6 -5 -3 -0 3 6 8 10 10 11 11 12
11 11 11 11 11 11 10 10 10 8 7 8 9 8 9 8 8 7 3 -2 -6 -9 -11 -7 -4 -2 -1 0 1 2 1 -2 -4 -6 -8 -9 -11 -12 -12 -12 -13 -14 -16 -18 -20 -21 -23 -20 -20 -18 -16 -15 -12 -7 -4 -1 4 7 10 11 11 11 12
11 11 11 11 10 11 10 10 9 8 7 7 7 7 8 8 8 7 6 4 1 -1 -2 -1 2 4 6 6 6 7 6 5 5 3 2 0 -1 -4 -5 -6 -7 -6 -8 -10 -12 -16 -20 -21 -20 -17 -14 -11 -8 -4 0 4 6 7 8 9 10 10 11
10 10 10 10 9 9 9 10 9 9 8 7 6 7 7 7 8 8 7 6 5 3 2 2 3 5 7 7 7 7 7 7 7 7 7 6 5 4 2 0 -2 -2 -3 -4 -5 -7 -11 -13 -13 -10 -6 -3 -0 2 3 5 7 7 8 9 9 9 10
Wind_Speed
5 3 11 17 23 26 25 26 30 33 36 38 36 34 33 31 28 24 21 21 23 24 25 27 28 28 28 28 27 25 24 24 23 22 21 19 17 16 16 14 13 14 15 14 13 12 12 12 13 13 11 10 11 11 11 12 12 12 11 11 11 10 10
9 5 4 10 16 23 24 24 25 27 30 37 39 36 34 33 31 28 24 22 23 23 23 26 29 29 29 29 28 27 25 24 23 23 22 20 19 19 19 18 16 15 15 14 13 12 12 12 13 13 12 10 10 10 10 10 10 10 10 10 10 10 10
12 9 6 7 11 18 24 25 25 24 23 27 34 38 38 34 32 30 28 24 23 23 22 23 26 29 29 29 29 28 27 26 25 25 23 23 22 21 21 21 18 16 15 14 14 14 13 12 12 13 14 12 10 9 9 9 9 9 8 10 11 11 11
14 12 10 8 7 12 19 24 28 29 26 23 25 30 36 37 33 31 30 27 24 24 23 22 23 26 28 29 29 29 29 28 27 26 25 24 24 23 22 22 20 18 16 15 15 15 14 13 13 13 14 14 12 11 10 10 10 9 9 11 12 12 12
15 14 12 11 9 8 11 17 23 27 29 30 28 26 28 33 35 34 32 29 26 24 22 21 21 23 26 28 29 29 30 30 29 28 27 25 24 24 23 22 21 19 18 17 16 16 15 15 13 13 13 14 14 13 12 12 12 12 11 12 13 14 13
16 16 15 14 12 9 8 12 18 23 28 31 33 32 29 29 34 37 35 32 29 26 24 22 22 22 24 27 28 29 29 30 30 29 28 26 25 24 23 21 21 20 19 18 18 17 16 16 15 13 13 13 14 14 13 12 13 13 13 13 14 14 14
15 16 15 15 14 11 9 9 15 21 26 28 30 34 34 33 34 37 38 36 33 31 29 27 25 24 24 26 27 29 29 30 31 30 29 27 26 25 23 22 21 20 20 20 19 18 17 18 16 15 14 14 15 14 13 13 12 12 12 13 14 15 14
14 14 13 14 14 13 11 8 11 17 22 24 27 32 36 36 34 35 40 40 37 35 34 31 29 27 27 27 27 29 29 29 30 31 30 29 27 26 24 24 23 21 21 20 20 19 18 18 17 16 16 17 17 16 16 15 14 13 12 12 13 14 13
14 12 12 13 12 12 13 9 7 13 19 22 25 31 36 37 33 33 39 42 40 37 34 32 30 28 28 29 29 29 29 29 29 30 31 31 29 27 25 24 24 23 22 21 19 19 19 19 18 18 18 18 19 18 18 17 16 15 14 13 13 12 12
14 12 11 11 10 11 12 10 7 10 18 22 24 29 34 38 36 34 38 43 43 40 36 33 31 28 27 28 29 29 29 29 29 30 31 31 30 28 26 25 24 24 23 21 20 19 19 19 18 18 19 20 21 21 20 20 18 17 17 16 14 14 13
13 11 10 10 10 12 12 10 8 9 15 21 24 25 28 34 37 36 38 42 43 41 38 35 33 30 28 27 28 29 30 30 29 30 30 30 29 28 27 26 25 24 24 22 21 19 17 17 19 20 20 20 21 21 22 22 21 20 19 19 18 17 17
10 9 10 11 10 10 11 10 9 9 12 16 19 19 19 26 32 33 35 39 41 41 38 36 33 31 29 28 28 30 30 30 30 30 30 30 29 28 26 26 25 25 24 23 21 19 17 18 20 21 21 20 20 20 20 19 20 20 19 20 20 20 21
9 9 10 10 9 8 7 8 9 8 10 14 17 16 15 19 25 30 34 36 38 39 38 35 33 32 31 30 29 30 30 31 30 29 29 29 28 28 26 25 25 25 25 24 23 21 20 21 22 21 20 21 21 20 17 16 17 17 17 18 18 19 20
8 8 9 9 8 8 6 6 8 8 8 11 16 18 18 17 19 25 30 33 34 35 37 37 34 32 32 31 30 30 30 30 30 30 29 28 28 27 26 24 24 25 25 24 23 22 22 22 22 21 21 21 21 19 17 16 18 17 17 17 18 18 18
9 8 9 10 8 7 5 5 6 6 6 9 12 17 21 20 19 19 23 28 31 32 35 37 35 33 33 33 32 30 29 29 30 30 29 29 28 27 25 24 23 24 25 24 23 22 22 23 23 23 23 23 22 20 18 17 19 18 18 18 18 19 19
10 8 8 10 9 8 6 5 6 4 3 7 10 13 19 23 23 22 22 23 28 32 34 35 35 33 32 33 32 30 29 29 30 30 30 29 28 26 25 24 23 24 24 25 25 24 22 22 22 22 23 24 24 24 22 21 19 19 18 18 19 19 20
10 9 8 8 9 10 7 6 7 6 2 5 9 12 17 22 26 28 28 26 27 31 34 34 34 32 32 33 32 31 30 30 31 31 29 28 26 26 26 25 26 26 26 26 26 25 22 20 19 19 21 22 23 24 25 23 21 20 19 19 20 21 21
9 9 9 9 9 11 10 9 9 7 4 5 8 11 15 20 25 29 32 33 33 33 34 36 35 35 35 34 32 31 30 31 33 32 30 28 26 26 27 28 28 28 28 28 27 26 25 23 23 21 20 21 20 21 22 22 21 20 19 20 21 22 22
8 8 9 10 9 9 10 11 11 8 7 9 11 12 15 19 24 30 32 34 36 36 36 38 38 37 37 36 34 30 28 30 33 33 32 31 27 26 25 27 28 28 29 28 27 26 26 26 25 23 21 21 21 20 21 21 21 21 21 22 22 23 23
7 7 8 9 9 8 9 10 12 10 9 10 12 14 15 16 19 28 33 33 35 36 35 36 36 36 37 35 33 30 27 28 30 31 33 33 28 24 23 24 25 26 26 26 25 25 25 25 24 23 22 22 22 22 22 22 22 23 23 23 23 23 24
5 6 7 9 10 11 10 10 10 12 11 9 11 12 11 11 13 23 31 32 33 33 32 32 32 32 32 31 29 27 26 27 28 28 30 30 27 25 25 26 26 24 22 22 23 23 23 23 23 23 23 23 23 23 23 23 23 23 23 24 24 24 24
3 5 7 10 12 12 12 11 10 11 12 11 10 8 6 8 10 18 26 28 29 29 28 29 29 28 27 26 27 27 25 24 24 25 25 25 24 24 28 30 28 24 22 21 22 23 24 23 23 22 21 21 21 22 23 23 23 23 23 23 23 23 24
2 4 6 9 12 12 11 10 10 10 11 11 9 7 4 5 10 16 20 21 22 23 22 24 25 24 24 26 26 25 22 20 19 20 20 19 18 20 24 26 24 22 21 20 20 21 22 22 20 19 18 20 21 22 22 23 23 22 23 23 23 24 24
1 3 6 8 10 11 10 10 10 10 10 9 7 6 4 0 6 12 14 15 17 18 16 17 19 20 23 24 24 22 20 19 19 17 16 16 15 17 19 19 19 19 20 19 19 19 20 20 19 19 20 21 22 22 22 22 22 22 23 23 24 25 26
2 4 6 7 9 11 11 10 9 7 7 6 6 7 8 5 3 8 11 12 14 13 11 12 14 15 17 19 19 19 18 18 18 17 15 14 14 14 14 14 15 16 17 17 18 19 19 20 20 20 21 22 21 21 22 22 23 24 23 24 25 25 27
3 4 6 7 8 9 10 9 6 5 5 6 6 7 8 6 4 9 13 13 13 13 12 13 13 13 15 16 16 16 16 16 17 17 17 16 15 14 14 14 15 16 16 17 17 18 19 20 21 21 22 22 21 22 23 24 24 25 25 25 25 26 27
4 4 5 5 6 7 8 8 7 6 6 6 5 5 7 7 6 9 12 12 13 14 15 15 14 14 15 16 16 16 16 15 15 15 15 14 14 14 14 13 13 14 15 16 16 17 18 18 19 19 20 20 21 22 23 24 25 25 26 26 25 26 26
7 6 6 6 5 7 9 10 10 9 7 7 8 8 8 9 9 10 11 10 12 13 11 12 12 11 12 15 16 15 14 13 13 12 11 10 10 9 9 7 7 7 9 10 11 12 13 13 14 14 16 18 19 21 21 22 22 23 24 24 23 22 22
7 8 9 10 10 11 12 12 13 13 11 10 12 14 13 13 13 14 13 13 13 11 9 10 11 8 9 11 13 13 12 10 9 8 7 6 5 4 3 1 0 1 1 1 2 3 3 4 5 7 10 12 13 14 15 15 15 16 17 17 15 14 14
8 10 13 18 20 19 17 16 16 15 14 13 13 14 15 16 17 18 17 16 15 13 12 14 13 12 13 15 16 16 15 14 12 11 10 8 6 5 4 4 4 4 4 4 4 5 5 5 5 3 1 2 3 5 6 7 7 8 11 12 11 9 9
11 14 16 20 23 22 19 18 18 18 17 16 15 15 16 17 18 20 20 18 16 15 16 17 18 19 21 21 20 20 19 18 17 16 15 13 11 10 10 9 8 9 9 9 8 8 9 9 9 8 8 6 5 5 5 3 2 2 5 7 8 7 7
14 16 16 18 20 18 16 17 18 19 20 20 19 19 19 19 20 20 19 17 16 16 17 18 20 22 23 22 22 21 20 19 19 18 17 16 15 15 15 13 12 12 12 12 12 12 12 12 11 10 10 9 9 10 10 9 7 6 4 5 5 4 5
16 16 16 16 16 15 14 15 16 17 18 19 20 20 21 22 22 21 19 18 18 19 19 21 22 24 23 23 22 21 20 20 20 20 19 19 18 18 17 16 14 14 14 14 14 14 14 13 13 12 12 12 12 12 11 11 11 10 9 9 9 8 7
17 17 16 14 14 13 12 13 15 15 16 16 16 17 19 21 22 21 20 19 19 20 21 23 24 25 26 25 25 24 23 22 22 21 21 21 20 20 19 18 17 16 16 15 15 15 15 15 15 15 15 15 14 13 13 12 12 12 12 11 11 12 13
18 16 15 13 13 12 11 12 13 14 15 16 15 14 15 17 19 20 20 20 20 20 22 25 26 27 28 28 28 27 26 25 24 23 22 22 22 22 22 21 20 19 18 18 17 16 16 16 17 17 16 16 15 14 14 14 14 15 15 15 14 15 16
17 15 16 16 14 12 11 11 11 13 15 16 14 13 13 14 16 17 18 18 19 19 21 24 26 27 28 28 28 28 27 27 26 25 24 23 22 22 23 23 22 21 21 20 20 19 18 17 17 17 15 14 14 15 15 16 16 16 16 16 16 16 17
17 18 20 19 16 14 12 11 11 12 15 16 16 15 14 14 15 15 16 17 18 18 19 20 22 25 26 26 26 25 25 25 25 24 24 23 22 22 22 22 22 22 22 21 21 20 19 18 18 17 15 14 14 15 16 16 16 16 16 16 16 16 16
19 19 20 18 15 13 12 12 13 14 15 16 16 16 16 16 16 15 15 16 16 15 15 16 17 19 21 21 22 22 22 22 22 22 22 22 22 21 20 20 20 21 21 21 20 20 19 18 17 16 16 15 16 16 16 16 16 16 16 16 15 15 14
Wind_Direction
26 232 228 225 221 223 231 233 224 218 215 215 217 218 218 219 219 216 215 210 206 206 206 205 206 208 206 204 203 204 204 205 207 212 217 222 227 231 233 231 227 226 228 231 237 243 243 240 235 233 234 238 243 249 253 257 258 256 253 254 257 259 263
28 20 263 243 235 227 228 231 228 223 219 217 217 218 218 219 219 218 216 212 207 207 209 209 209 209 210 209 208 209 209 209 210 214 219 224 230 235 236 234 232 232 234 237 239 243 245 242 238 233 232 235 241 246 251 253 254 254 256 259 263 264 263
9 5 332 279 253 239 236 234 232 233 233 227 220 217 219 222 222 220 218 214 209 208 211 214 213 212 211 211 211 212 213 214 215 217 220 224 228 232 233 234 235 236 238 241 242 242 242 245 245 239 232 231 231 233 240 247 250 253 260 264 264 264 263
353 350 340 320 294 264 254 247 243 241 241 242 235 224 221 223 226 225 220 217 213 209 210 214 218 217 214 213 213 214 215 216 218 220 222 226 228 229 230 232 235 237 238 241 242 241 243 245 245 240 236 234 230 229 237 247 252 257 263 263 261 260 261
339 337 336 331 325 302 275 259 254 248 241 238 238 235 229 225 227 227 223 220 218 214 213 213 218 220 219 217 215 216 216 217 219 222 224 227 228 227 228 232 236 239 240 241 241 241 243 242 235 231 235 238 237 238 242 248 254 259 263 264 261 260 261
333 331 331 329 325 314 289 260 251 246 239 235 231 231 231 228 228 228 226 223 221 219 218 217 219 221 221 220 217 217 218 219 220 223 225 228 227 227 229 233 237 240 241 242 242 241 240 236 229 228 234 240 243 246 249 257 263 265 266 266 264 262 262
335 329 328 326 322 315 296 259 243 238 234 233 231 229 228 227 228 228 226 224 223 221 220 219 220 222 223 222 219 218 218 219 221 223 225 227 227 229 232 234 237 240 242 243 243 240 236 230 227 230 238 243 246 248 252 257 265 270 272 269 266 264 263
343 336 334 329 324 318 307 275 244 238 232 230 229 227 225 224 225 228 227 225 223 222 221 220 220 220 221 221 221 221 221 220 221 223 224 226 228 230 233 235 238 240 241 240 239 236 229 225 226 232 240 245 248 251 254 255 258 266 272 273 271 266 261
349 348 347 337 326 320 318 308 259 235 232 231 227 222 221 221 223 227 230 229 226 223 222 222 222 223 222 220 220 222 223 222 222 224 226 227 229 230 232 235 237 238 239 238 237 235 229 227 229 234 241 246 249 252 254 254 253 257 264 269 271 266 257
356 358 356 344 331 327 324 316 290 238 228 228 225 220 218 221 225 227 229 229 228 225 223 222 222 224 224 221 219 220 222 223 223 224 227 229 231 232 233 235 237 238 240 241 240 238 235 235 237 240 244 247 249 253 256 257 254 253 256 261 264 266 262
2 2 357 345 334 334 330 317 300 263 236 226 224 224 221 222 227 228 225 225 226 225 223 222 221 223 224 222 220 219 220 222 223 224 227 230 233 234 234 235 237 238 239 239 237 235 235 238 240 241 242 244 246 249 252 255 256 253 254 256 258 264 268
2 1 351 339 335 337 334 324 305 277 252 231 223 227 228 226 226 226 225 225 225 224 222 220 222 223 224 223 221 221 220 221 222 224 226 229 231 234 235 236 238 238 237 234 231 227 228 234 237 238 240 241 244 247 248 250 252 253 254 255 255 258 264
358 359 346 334 339 344 338 328 311 286 260 237 223 219 223 225 223 223 223 223 224 225 224 224 224 223 223 223 223 224 222 221 222 223 225 228 229 232 235 237 237 237 235 232 228 225 227 233 236 237 241 245 248 251 251 248 250 254 257 261 262 260 262
351 355 349 343 341 335 338 336 317 297 268 244 228 221 223 223 220 220 222 221 222 226 227 226 225 224 223 225 226 226 225 224 224 223 223 226 228 231 233 233 232 232 231 230 226 222 226 233 238 240 244 249 252 254 253 248 249 254 257 263 269 269 268
350 352 349 352 345 328 334 340 321 299 270 251 232 223 224 225 221 217 220 223 224 227 228 226 225 225 225 225 227 228 228 227 227 225 224 224 225 227 227 226 227 229 231 230 226 224 229 237 244 247 248 250 252 254 254 253 253 256 258 262 269 272 273
350 350 348 353 352 342 339 330 327 328 254 235 228 221 222 227 228 221 217 223 226 227 227 225 224 226 226 228 230 232 231 231 230 228 226 224 222 222 221 221 226 231 233 233 231 231 235 241 247 250 251 251 252 252 254 256 258 260 260 264 270 273 273
349 348 347 352 352 349 346 326 321 332 313 227 227 225 224 227 230 229 228 231 231 228 227 224 225 227 227 228 232 233 233 231 230 229 226 224 220 217 217 223 230 235 237 237 235 234 235 241 248 252 253 254 253 253 253 256 259 261 262 263 268 270 271
343 345 343 342 344 348 348 338 325 315 300 274 251 240 234 228 227 227 231 234 232 229 226 224 225 226 225 226 229 233 233 231 230 229 228 225 220 216 220 230 237 240 238 235 235 237 240 246 252 255 256 255 254 253 252 253 255 257 258 259 263 266 268
340 343 341 336 339 343 342 337 331 314 295 295 289 274 261 248 234 226 225 229 230 227 225 223 222 221 222 224 226 231 235 234 229 228 228 226 222 221 228 238 242 241 238 234 235 239 244 247 250 253 254 253 253 252 252 253 253 253 254 256 259 261 265
346 342 337 334 335 338 335 330 328 321 309 306 305 295 284 274 249 227 221 225 226 223 221 219 217 217 220 223 225 227 232 231 226 225 226 225 222 222 228 234 233 230 231 233 234 236 239 243 246 250 252 252 252 252 252 252 253 252 253 254 255 257 261
351 350 345 338 335 336 335 328 323 330 333 323 318 308 290 279 255 226 218 221 221 218 216 216 216 219 221 222 222 221 220 221 223 226 227 225 224 225 230 234 233 229 227 230 232 234 237 243 248 251 253 253 252 252 251 251 252 253 254 254 254 256 259
3 4 349 338 336 338 340 334 327 339 345 338 331 320 275 242 230 215 209 211 212 210 209 210 213 216 217 214 213 211 210 214 220 226 228 228 227 227 232 238 241 239 235 232 236 241 244 247 251 253 253 253 253 253 252 252 253 254 255 255 256 257 258
33 7 346 340 339 341 345 338 331 337 342 338 338 333 286 217 204 202 200 201 205 207 203 199 201 204 203 202 203 204 204 209 216 220 222 222 217 216 224 232 235 236 234 232 234 239 243 246 249 250 251 252 252 252 253 254 255 255 255 255 254 255 255
66 3 349 347 343 344 348 339 328 329 335 338 350 6 8 285 190 190 191 194 201 206 202 191 192 195 193 192 195 198 199 205 212 212 210 209 207 206 214 221 226 232 235 235 237 241 245 248 249 250 252 252 252 252 253 255 255 255 254 253 252 252 251
63 12 355 353 350 352 354 349 337 331 342 359 12 22 27 33 124 151 155 167 180 189 184 172 173 177 176 179 187 195 200 208 217 222 223 226 228 227 228 233 238 242 245 246 248 250 250 251 251 251 252 253 254 255 257 257 256 255 253 252 251 252 252
53 16 360 357 0 5 5 2 1 356 16 44 43 33 46 63 120 139 137 145 154 152 145 147 154 162 167 174 186 195 202 211 221 230 236 242 247 250 253 253 253 254 255 256 256 255 254 254 254 254 254 254 256 258 258 259 259 258 257 255 252 251 253
87 52 31 21 20 31 34 32 38 35 36 63 79 77 87 105 133 138 135 139 135 122 121 135 148 157 165 175 188 196 201 208 217 227 238 246 253 257 258 257 258 259 261 261 260 258 258 258 258 260 260 260 260 260 260 260 261 262 261 259 256 254 254
93 77 70 67 62 65 63 56 56 55 57 81 101 110 124 134 135 130 126 118 107 102 110 129 140 154 171 177 180 183 189 199 210 222 235 244 252 256 257 262 267 267 265 264 263 261 259 258 259 261 263 262 260 259 258 257 259 260 259 258 256 254 251
94 83 85 89 89 85 81 75 69 68 72 90 102 107 115 121 118 115 112 104 99 101 107 114 123 145 163 153 145 145 151 163 177 186 195 200 206 215 215 209 294 292 295 301 308 301 276 261 261 265 267 268 265 260 255 252 252 252 248 244 243 242 238
113 99 93 91 91 87 84 83 80 78 79 86 93 96 99 102 100 98 95 92 93 96 99 103 110 115 112 107 108 113 118 122 125 128 130 128 125 128 121 101 89 87 81 73 62 57 63 69 65 56 24 266 250 238 234 236 241 243 234 217 205 213 222
126 114 101 94 91 88 84 84 83 83 84 85 88 89 89 91 92 92 91 91 96 100 101 104 105 103 100 99 100 102 104 107 107 106 105 103 101 101 99 93 90 90 87 85 84 83 83 81 77 76 83 95 109 115 119 130 143 212 220 191 178 201 224
134 124 113 102 96 91 89 88 86 87 87 87 88 89 87 86 87 88 90 94 98 101 102 102 101 99 98 98 96 96 99 101 100 99 97 97 95 94 92 91 91 92 92 91 91 90 89 89 89 89 92 95 93 91 88 87 86 87 91 104 119 166 200
142 132 122 113 104 99 95 90 86 89 92 90 88 87 85 84 82 83 88 93 95 98 99 99 98 97 96 96 96 98 99 99 99 99 98 96 95 94 94 95 95 96 97 96 95 94 95 96 95 94 94 93 89 87 87 84 82 81 81 84 94 111 124
150 138 128 120 114 109 101 87 80 85 94 99 95 88 85 84 81 81 85 90 94 97 98 97 97 96 96 95 95 95 96 96 98 99 99 98 98 97 97 97 98 100 100 98 97 97 97 98 98 96 94 91 89 89 88 86 82 80 81 86 94 103 110
162 149 138 131 126 120 107 92 84 86 95 103 104 96 90 87 85 83 84 88 93 96 97 98 97 96 95 94 93 92 92 92 92 93 94 96 97 97 97 96 96 97 98 98 99 99 99 99 99 97 94 92 91 91 91 90 86 82 80 83 91 102 113
168 151 141 139 136 129 115 102 95 95 99 104 108 105 97 91 90 87 86 89 93 96 98 100 100 98 97 96 94 92 91 90 90 90 90 90 91 92 93 93 92 91 91 92 92 94 97 98 98 96 96 94 93 93 92 90 88 87 85 85 90 101 114
159 143 140 141 137 127 118 112 109 107 106 105 105 105 101 96 96 95 93 93 94 96 99 102 102 101 101 99 97 94 92 91 90 89 88 86 86 86 88 90 90 89 87 86 86 87 90 94 97 99 101 100 99 97 95 93 92 93 93 93 96 103 112
148 142 142 143 136 126 121 121 120 117 113 109 105 104 103 100 100 101 99 96 94 96 99 101 102 103 103 103 102 100 97 95 94 92 89 86 83 82 82 85 87 88 86 84 83 84 86 90 96 101 102 101 98 96 95 94 93 92 93 93 94 96 100
Height
1507 1508 1509 1510 1511 1512 1513 1515 1515 1515 1515 1515 1516 1517 1518 1519 1520 1522 1523 1524 1526 1528 1529 1531 1532 1534 1536 1537 1539 1541 1543 1544 1546 1547 1549 1550 1551 1553 1554 1555 1557 1558 1559 1560 1561 1562 1563 1564 1564 1565 1565 1565 1566 1566 1567 1567 1568 1568 1568 1569 1569 1569 1569
1506 1507 1507 1508 1510 1510 1511 1512 1513 1514 1514 1514 1514 1516 1517 1518 1519 1520 1521 1522 1524 1525 1527 1529 1531 1532 1534 1536 1538 1539 1541 1543 1544 1546 1547 1549 1550 1552 1553 1554 1556 1557 1558 1559 1560 1561 1562 1563 1563 1563 1564 1564 1565 1565 1566 1567 1567 1567 1568 1568 1568 1567 1568
1507 1507 1506 1506 1508 1509 1509 1510 1511 1513 1514 1515 1515 1515 1515 1516 1517 1518 1519 1521 1522 1523 1525 1527 1529 1530 1532 1534 1536 1537 1539 1541 1543 1545 1546 1548 1549 1551 1552 1553 1555 1556 1557 1558 1559 1560 1561 1562 1562 1563 1563 1563 1564 1564 1565 1566 1566 1566 1566 1566 1566 1566 1566
1507 1506 1506 1506 1506 1507 1507 1508 1509 1511 1513 1515 1516 1516 1516 1516 1516 1517 1518 1520 1521 1522 1523 1525 1527 1529 1531 1532 1534 1536 1537 1539 1541 1543 1545 1546 1548 1550 1551 1552 1553 1554 1555 1556 1557 1558 1559 1560 1561 1562 1562 1563 1563 1564 1564 1565 1565 1565 1565 1565 1565 1565 1565
1506 1505 1504 1505 1505 1505 1505 1505 1506 1508 1511 1513 1514 1516 1517 1518 1518 1517 1518 1519 1520 1521 1522 1523 1526 1527 1529 1530 1532 1534 1536 1538 1540 1541 1543 1545 1547 1548 1549 1551 1552 1553 1554 1555 1556 1557 1558 1559 1560 1560 1561 1562 1562 1563 1563 1564 1564 1565 1565 1564 1564 1564 1564
1506 1504 1503 1503 1503 1503 1503 1502 1503 1504 1507 1508 1509 1512 1516 1519 1520 1518 1518 1519 1519 1521 1522 1523 1524 1525 1527 1529 1530 1532 1534 1536 1538 1540 1542 1543 1545 1546 1547 1549 1550 1551 1553 1554 1555 1556 1556 1558 1558 1559 1560 1561 1561 1562 1562 1563 1563 1564 1564 1564 1564 1564 1564
1506 1504 1503 1502 1501 1502 1501 1501 1502 1502 1503 1504 1506 1509 1511 1515 1518 1518 1518 1518 1519 1520 1520 1521 1523 1523 1525 1527 1528 1531 1532 1534 1536 1538 1540 1542 1543 1544 1546 1547 1549 1550 1551 1552 1553 1554 1555 1556 1557 1558 1559 1559 1560 1561 1561 1562 1562 1563 1563 1563 1563 1563 1563
1506 1504 1502 1501 1500 1499 1500 1499 1501 1501 1501 1501 1502 1505 1508 1509 1513 1516 1517 1516 1517 1519 1519 1519 1520 1521 1522 1525 1527 1529 1530 1532 1535 1536 1538 1540 1541 1542 1544 1545 1547 1548 1549 1550 1551 1552 1553 1555 1556 1557 1558 1558 1559 1560 1560 1561 1561 1562 1562 1562 1562 1562 1562
1505 1503 1502 1501 1499 1498 1498 1498 1499 1500 1500 1499 1499 1500 1504 1506 1508 1512 1515 1516 1515 1516 1517 1517 1518 1519 1520 1522 1524 1526 1529 1531 1533 1534 1536 1537 1539 1540 1542 1543 1545 1546 1548 1549 1550 1551 1552 1553 1554 1555 1556 1557 1557 1558 1559 1559 1560 1561 1561 1561 1561 1561 1561
1505 1503 1501 1500 1498 1497 1496 1496 1497 1498 1498 1498 1497 1498 1500 1503 1504 1506 1512 1515 1514 1514 1515 1516 1517 1518 1519 1520 1522 1524 1526 1528 1530 1532 1534 1535 1537 1538 1540 1541 1543 1544 1546 1547 1548 1549 1550 1551 1552 1553 1554 1555 1555 1556 1557 1558 1559 1559 1560 1560 1560 1560 1559
1505 1503 1501 1500 1498 1496 1495 1494 1495 1495 1496 1496 1496 1497 1498 1500 1501 1502 1505 1511 1513 1512 1512 1514 1516 1517 1517 1518 1519 1521 1523 1525 1527 1530 1531 1533 1535 1536 1538 1539 1541 1542 1544 1545 1546 1547 1548 1550 1550 1551 1551 1552 1552 1554 1555 1556 1557 1558 1558 1558 1558 1558 1558
1505 1503 1501 1500 1498 1496 1495 1494 1493 1493 1494 1495 1496 1497 1498 1498 1499 1499 1500 1504 1509 1511 1510 1511 1513 1514 1514 1516 1517 1518 1520 1522 1524 1526 1528 1530 1532 1534 1536 1537 1539 1540 1541 1542 1544 1545 1546 1547 1548 1548 1549 1550 1550 1551 1552 1554 1555 1555 1555 1555 1555 1555 1555
1505 1503 1502 1500 1498 1497 1495 1494 1493 1493 1493 1494 1494 1496 1497 1497 1497 1497 1497 1499 1504 1508 1509 1509 1510 1511 1512 1513 1515 1516 1518 1519 1520 1522 1525 1527 1529 1531 1533 1535 1536 1537 1538 1539 1541 1542 1544 1544 1545 1547 1547 1548 1549 1549 1551 1553 1553 1553 1553 1553 1553 1553 1553
1505 1504 1502 1500 1498 1497 1496 1495 1493 1492 1492 1492 1493 1494 1495 1495 1495 1495 1496 1498 1500 1504 1507 1509 1509 1509 1511 1512 1513 1514 1516 1517 1519 1520 1522 1524 1526 1529 1530 1531 1532 1533 1535 1536 1538 1539 1541 1542 1543 1544 1545 1546 1546 1547 1549 1550 1550 1550 1550 1551 1551 1551 1550
1505 1504 1502 1500 1498 1496 1496 1495 1494 1492 1492 1491 1491 1492 1492 1493 1493 1493 1494 1496 1498 1500 1503 1506 1507 1507 1509 1510 1511 1512 1514 1516 1518 1519 1520 1522 1523 1525 1527 1528 1529 1531 1532 1534 1535 1537 1538 1539 1541 1542 1542 1543 1544 1545 1546 1547 1547 1547 1547 1548 1548 1548 1548
1504 1503 1502 1500 1498 1497 1495 1495 1494 1492 1492 1491 1490 1491 1491 1491 1491 1491 1491 1493 1495 1497 1499 1502 1504 1505 1507 1508 1509 1511 1513 1515 1516 1518 1519 1519 1520 1522 1524 1526 1527 1529 1530 1532 1533 1535 1536 1538 1538 1539 1540 1541 1542 1543 1543 1544 1544 1544 1545 1545 1545 1546 1545
1504 1503 1502 1500 1499 1497 1495 1495 1493 1492 1492 1491 1491 1490 1489 1489 1489 1489 1489 1491 1493 1494 1496 1499 1501 1503 1504 1506 1508 1510 1512 1514 1515 1516 1517 1518 1518 1520 1522 1524 1526 1528 1529 1531 1532 1534 1535 1536 1536 1537 1538 1538 1539 1540 1541 1541 1542 1542 1542 1542 1543 1543 1543
1503 1503 1501 1500 1499 1498 1496 1495 1493 1492 1491 1490 1490 1489 1488 1487 1487 1487 1487 1489 1491 1492 1494 1496 1498 1499 1501 1503 1506 1508 1510 1512 1514 1515 1516 1516 1517 1518 1520 1523 1525 1526 1527 1529 1531 1532 1533 1534 1535 1535 1536 1536 1537 1538 1538 1539 1539 1539 1540 1540 1540 1540 1540
1503 1502 1501 1500 1499 1498 1497 1495 1493 1491 1490 1489 1488 1487 1486 1485 1483 1483 1484 1486 1488 1490 1492 1494 1495 1496 1497 1499 1501 1504 1508 1511 1513 1514 1514 1514 1515 1517 1519 1522 1524 1525 1525 1526 1529 1530 1531 1532 1533 1533 1534 1534 1535 1535 1536 1536 1537 1537 1537 1538 1538 1538 1538
1503 1502 1501 1500 1499 1497 1496 1495 1493 1491 1490 1488 1487 1484 1482 1481 1479 1479 1481 1483 1486 1488 1489 1492 1493 1494 1495 1496 1498 1499 1502 1507 1511 1512 1512 1513 1514 1516 1518 1521 1522 1522 1523 1524 1527 1528 1529 1530 1531 1531 1532 1532 1532 1533 1534 1534 1534 1534 1535 1535 1536 1536 1535
1503 1502 1501 1500 1499 1497 1496 1494 1493 1492 1490 1489 1487 1484 1482 1479 1478 1478 1479 1481 1484 1486 1488 1491 1493 1493 1494 1496 1497 1497 1498 1502 1507 1510 1511 1512 1513 1515 1517 1518 1519 1520 1521 1523 1525 1526 1527 1528 1529 1529 1529 1529 1530 1531 1531 1531 1531 1532 1532 1533 1534 1534 1534
1504 1503 1502 1500 1499 1497 1495 1494 1493 1492 1491 1489 1487 1485 1483 1481 1479 1479 1479 1481 1484 1486 1487 1490 1491 1492 1494 1496 1496 1497 1497 1499 1504 1508 1510 1510 1511 1512 1515 1517 1519 1521 1522 1522 1523 1524 1525 1525 1526 1527 1527 1527 1528 1528 1528 1528 1529 1529 1530 1531 1532 1532 1532
1504 1503 1502 1500 1499 1497 1496 1495 1494 1493 1491 1489 1488 1486 1483 1482 1481 1481 1482 1483 1485 1487 1487 1488 1490 1492 1494 1496 1497 1497 1497 1499 1502 1506 1508 1508 1509 1512 1515 1518 1520 1521 1520 1520 1521 1522 1523 1524 1523 1524 1524 1524 1524 1524 1524 1525 1526 1527 1528 1528 1529 1529 1529
1505 1503 1502 1501 1500 1498 1496 1496 1495 1494 1493 1490 1488 1486 1485 1484 1483 1483 1484 1485 1486 1488 1488 1489 1490 1491 1492 1495 1496 1497 1497 1499 1501 1503 1505 1507 1510 1513 1516 1518 1519 1519 1519 1519 1520 1521 1521 1521 1520 1521 1521 1521 1521 1521 1522 1523 1524 1524 1525 1525 1525 1525 1526
1505 1504 1503 1501 1500 1499 1497 1497 1496 1495 1494 1491 1489 1488 1487 1486 1486 1485 1486 1486 1487 1488 1489 1489 1490 1490 1492 1494 1495 1496 1497 1498 1500 1502 1504 1507 1509 1512 1514 1516 1517 1517 1517 1517 1517 1517 1518 1517 1517 1518 1518 1517 1518 1519 1520 1521 1521 1522 1522 1522 1522 1522 1523
1506 1505 1504 1502 1502 1500 1499 1498 1498 1496 1495 1493 1491 1490 1489 1489 1488 1488 1488 1488 1488 1488 1489 1490 1491 1491 1493 1494 1495 1496 1497 1499 1501 1502 1504 1506 1508 1509 1511 1512 1513 1514 1514 1514 1514 1514 1514 1514 1514 1514 1514 1515 1516 1517 1518 1518 1518 1519 1519 1520 1520 1520 1520
1506 1505 1504 1503 1503 1502 1501 1500 1500 1498 1497 1495 1493 1492 1492 1491 1490 1490 1490 1489 1489 1489 1490 1492 1492 1493 1495 1496 1496 1497 1498 1499 1501 1502 1504 1505 1506 1507 1508 1509 1509 1510 1511 1511 1511 1511 1511 1511 1511 1511 1511 1512 1514 1514 1515 1515 1516 1516 1517 1517 1517 1518 1517
1507 1506 1505 1503 1503 1503 1503 1503 1502 1500 1499 1498 1496 1495 1494 1493 1492 1491 1491 1491 1491 1492 1493 1493 1494 1495 1496 1495 1496 1497 1498 1500 1501 1502 1504 1505 1505 1506 1506 1507 1507 1508 1508 1508 1508 1508 1508 1508 1508 1509 1509 1510 1511 1512 1512 1513 1514 1515 1516 1515 1516 1516 1516
1508 1508 1506 1504 1504 1505 1505 1505 1504 1503 1502 1501 1499 1498 1497 1495 1494 1494 1494 1494 1494 1495 1495 1495 1496 1496 1496 1495 1496 1498 1500 1501 1503 1503 1504 1505 1505 1506 1506 1506 1506 1506 1506 1507 1506 1506 1506 1506 1507 1507 1508 1508 1509 1510 1511 1512 1513 1514 1515 1515 1515 1516 1516
1509 1510 1509 1507 1506 1506 1507 1508 1507 1506 1505 1504 1503 1501 1500 1499 1498 1497 1497 1497 1498 1498 1498 1498 1498 1498 1498 1498 1499 1501 1502 1504 1505 1505 1505 1506 1507 1507 1507 1507 1506 1506 1506 1507 1507 1506 1506 1506 1506 1507 1508 1508 1509 1510 1511 1512 1512 1513 1514 1514 1514 1516 1516
1510 1511 1511 1510 1509 1509 1511 1511 1510 1509 1508 1507 1506 1505 1504 1503 1502 1500 1500 1501 1501 1501 1501 1501 1501 1500 1500 1501 1502 1503 1504 1505 1506 1506 1505 1506 1508 1507 1507 1507 1507 1507 1507 1508 1508 1508 1508 1508 1508 1509 1510 1510 1510 1510 1511 1511 1512 1514 1514 1514 1514 1516 1517
1512 1512 1513 1512 1511 1512 1514 1514 1513 1512 1511 1510 1509 1508 1507 1507 1505 1504 1503 1504 1504 1504 1504 1504 1503 1503 1503 1503 1504 1505 1506 1507 1507 1507 1507 1508 1508 1509 1509 1509 1509 1509 1509 1509 1510 1510 1511 1511 1511 1512 1512 1513 1513 1512 1512 1513 1513 1514 1515 1515 1516 1517 1518
1513 1513 1514 1514 1513 1514 1515 1515 1515 1515 1514 1513 1513 1512 1511 1510 1509 1508 1508 1507 1507 1507 1507 1507 1506 1506 1506 1506 1507 1508 1509 1510 1510 1510 1510 1510 1510 1511 1512 1512 1513 1513 1512 1512 1513 1513 1513 1514 1514 1515 1515 1515 1515 1515 1515 1515 1515 1516 1517 1517 1518 1519 1520
1513 1514 1515 1515 1515 1516 1516 1516 1517 1517 1516 1515 1515 1515 1514 1513 1512 1512 1512 1511 1511 1511 1510 1510 1510 1509 1509 1510 1510 1511 1512 1513 1513 1513 1513 1513 1513 1514 1515 1516 1516 1516 1516 1516 1516 1516 1516 1516 1516 1517 1517 1517 1518 1518 1517 1517 1518 1518 1519 1520 1520 1521 1522
1513 1515 1516 1516 1517 1517 1517 1518 1518 1518 1518 1518 1517 1517 1516 1516 1516 1516 1516 1515 1515 1515 1513 1513 1513 1513 1513 1513 1514 1514 1515 1516 1517 1517 1517 1517 1517 1517 1518 1518 1519 1520 1519 1519 1519 1518 1518 1519 1519 1519 1520 1520 1520 1521 1520 1520 1520 1521 1521 1522 1523 1523 1524
1514 1516 1516 1517 1518 1519 1519 1520 1520 1520 1520 1519 1519 1519 1518 1518 1518 1519 1519 1519 1519 1518 1518 1517 1516 1517 1517 1517 1518 1518 1519 1519 1520 1520 1520 1520 1520 1521 1521 1521 1522 1522 1522 1522 1521 1521 1521 1521 1521 1521 1522 1523 1523 1523 1523 1524 1524 1524 1524 1525 1525 1526 1527
1515 1516 1517 1518 1519 1520 1521 1522 1521 1521 1522 1521 1521 1521 1520 1520 1521 1521 1521 1522 1522 1522 1522 1521 1520 1520 1520 1521 1521 1522 1522 1522 1523 1523 1523 1523 1524 1524 1524 1524 1524 1524 1524 1524 1524 1523 1523 1523 1523 1524 1525 1526 1526 1526 1526 1526 1527 1527 1528 1528 1528 1529 1530
1516 1517 1519 1519 1519 1521 1523 1524 1523 1523 1523 1523 1523 1522 1522 1522 1523 1523 1524 1524 1525 1525 1525 1524 1523 1523 1523 1523 1524 1524 1525 1525 1525 1526 1526 1526 1527 1527 1528 1527 1527 1526 1526 1526 1526 1526 1526 1526 1526 1527 1528 1528 1529 1529 1529 1529 1530 1530 1530 1531 1531 1532 1532